Date String (YYYY-MM-DD hh:mm:ss) UTC,Instrument flags,Ambient pressure (hPa),Sample flow (lpm),Bypass flow (lpm),Sample temperature (°C),Ambient temperature (°C),ASC tube jacket temperature (°C),LED temperature (°C),Box temperature (°C),Sample RH (%),Span deviation,Mass concentration (μg/m³),Mass concentration (μg/m³),Mass concentration (μg/m³)
DateTimeUTC,F1_M11,P_M11,Q1_M11,Q2_M11,T1_M11,T2_M11,T3_M11,T4_M11,T5_M11,U1_M11,ZSPAN_M11,X0_M11,X2_M11,X1_M11
2022-09-01 20:00:00,,0827.4,5.00,0.00,29.6,28.2,00.0,38.2,31.5,17.1,0000.0,0013.92,0006.77,0005.90
2022-09-01 20:01:00,,0827.4,5.01,0.00,29.7,28.4,00.0,38.3,31.6,17.0,0000.0,0013.49,0006.77,0005.91
2022-09-01 20:02:00,,0827.4,4.99,0.00,29.7,27.6,00.0,38.3,31.6,17.2,0000.0,0014.25,0006.76,0005.91
2022-09-01 20:03:00,,0827.4,5.00,0.00,29.7,26.7,00.0,38.3,31.5,17.7,0000.0,0014.77,0006.77,0005.93
2022-09-01 20:04:00,,0827.4,5.00,0.00,29.6,26.9,00.0,38.2,31.4,16.7,0000.0,0014.77,0006.81,0005.97
2022-09-01 20:05:00,,0827.4,5.01,0.00,29.6,27.2,00.0,38.2,31.3,16.3,0000.0,0015.24,0006.86,0005.99
2022-09-01 20:06:00,,0827.4,5.00,0.00,29.6,27.5,00.0,38.2,31.3,16.4,0000.0,0015.03,0006.84,0006.00
2022-09-01 20:07:00,,0827.4,5.00,0.00,29.6,27.8,00.0,38.2,31.4,16.3,0000.0,0014.51,0006.85,0006.02
2022-09-01 20:08:00,,0827.4,5.00,0.00,29.6,28.1,00.0,38.2,31.4,15.6,0000.0,0014.43,0006.87,0006.06
2022-09-01 20:09:00,,0827.4,5.01,0.00,29.7,28.3,00.0,38.2,31.5,15.3,0002.1,0014.52,0006.96,0006.15
2022-09-01 20:10:00,,0827.4,5.00,0.00,29.7,28.1,00.0,38.2,31.6,15.2,0000.0,0014.94,0006.94,0006.23
2022-09-01 20:11:00,,0827.5,4.99,0.00,29.7,27.0,00.0,38.2,31.5,15.0,0000.0,0014.85,0007.00,0006.31
2022-09-01 20:12:00,,0827.4,5.01,0.00,29.6,26.8,00.0,38.2,31.5,15.0,0000.0,0014.73,0007.08,0006.38
2022-09-01 20:13:00,,0827.4,4.99,0.00,29.6,27.0,00.0,38.2,31.4,15.2,0000.0,0014.78,0007.15,0006.45
2022-09-01 20:14:00,,0827.4,5.00,0.00,29.6,27.3,00.0,38.2,31.3,15.7,0000.0,0014.86,0007.22,0006.51
2022-09-01 20:15:00,,0827.4,5.01,0.00,29.6,27.6,00.0,38.2,31.3,16.0,0000.0,0014.78,0007.27,0006.54
2022-09-01 20:16:00,,0827.5,5.00,0.00,29.6,27.9,00.0,38.2,31.4,15.8,0000.9,0014.36,0007.30,0006.57
2022-09-01 20:17:00,,0827.4,5.01,0.00,29.6,28.1,00.0,38.2,31.4,15.2,0002.3,0014.43,0007.37,0006.62
2022-09-01 20:18:00,,0827.5,5.00,0.00,29.7,28.3,00.0,38.2,31.5,15.2,0001.4,0014.68,0007.42,0006.65
2022-09-01 20:19:00,,0827.5,4.98,0.00,29.7,27.6,00.0,38.2,31.5,15.1,0000.0,0015.51,0007.43,0006.63
2022-09-01 20:20:00,,0827.5,4.99,0.00,29.6,26.7,00.0,38.2,31.4,15.2,0000.0,0015.57,0007.41,0006.61
2022-09-01 20:21:00,,0827.4,5.00,0.00,29.6,26.8,00.0,38.2,31.4,15.5,0000.9,0014.66,0007.38,0006.57
2022-09-01 20:22:00,,0827.4,5.00,0.00,29.5,27.1,00.0,38.2,31.3,15.5,0001.7,0014.28,0007.32,0006.52
2022-09-01 20:23:00,,0827.3,5.01,0.00,29.5,27.4,00.0,38.2,31.3,16.0,0002.0,0014.12,0007.25,0006.48
2022-09-01 20:24:00,,0827.2,5.00,0.00,29.5,27.7,00.0,38.2,31.3,16.0,0001.7,0013.94,0007.20,0006.45
2022-09-01 20:25:00,,0827.3,5.01,0.00,29.6,28.0,00.0,38.2,31.4,16.0,0001.7,0013.27,0007.14,0006.40
2022-09-01 20:26:00,,0827.3,5.00,0.00,29.6,28.2,00.0,38.2,31.5,17.2,0001.8,0013.16,0007.12,0006.36
2022-09-01 20:27:00,,0827.4,4.99,0.00,29.6,28.4,00.0,38.2,31.5,17.1,0001.4,0013.38,0007.10,0006.35
2022-09-01 20:28:00,,0827.4,5.01,0.00,29.7,27.7,00.0,38.2,31.5,16.8,0000.0,0013.72,0007.13,0006.33
2022-09-01 20:29:00,,0827.4,4.99,0.00,29.6,26.7,00.0,38.2,31.4,17.0,0000.7,0015.30,0007.22,0006.33
2022-09-01 20:30:00,,0827.5,5.00,0.00,29.6,26.8,00.0,38.2,31.4,16.7,0001.7,0015.96,0007.26,0006.34
2022-09-01 20:31:00,,0827.5,5.00,0.00,29.5,27.1,00.0,38.2,31.3,16.8,0001.1,0014.96,0007.22,0006.33
2022-09-01 20:32:00,,0827.5,4.98,0.00,29.5,27.3,00.0,38.1,31.2,16.9,0001.2,0015.51,0007.19,0006.32
2022-09-01 20:33:00,,0827.5,5.02,0.00,29.5,27.7,00.0,38.2,31.3,17.0,0001.3,0015.79,0007.25,0006.33
2022-09-01 20:34:00,,0827.5,4.99,0.00,29.5,27.9,00.0,38.2,31.4,16.9,0001.3,0016.98,0007.26,0006.33
2022-09-01 20:35:00,,0827.5,5.00,0.00,29.6,28.2,00.0,38.2,31.5,16.8,0001.5,0017.22,0007.34,0006.35
2022-09-01 20:36:00,,0827.4,4.99,0.00,29.6,28.4,00.0,38.2,31.5,16.9,0002.2,0017.23,0007.38,0006.39
2022-09-01 20:37:00,,0827.4,4.99,0.00,29.6,27.7,00.0,38.2,31.5,16.9,0002.0,0017.22,0007.40,0006.43
2022-09-01 20:38:00,,0827.3,5.00,0.00,29.6,26.7,00.0,38.2,31.4,16.9,0002.0,0017.63,0007.45,0006.46
2022-09-01 20:39:00,,0827.3,5.02,0.00,29.6,26.7,00.0,38.2,31.4,15.7,0002.0,0017.19,0007.41,0006.45
2022-09-01 20:40:00,,0827.2,4.99,0.00,29.5,27.0,00.0,38.1,31.3,16.5,0002.1,0015.61,0007.29,0006.41
2022-09-01 20:41:00,,0827.2,5.00,0.00,29.5,27.2,00.0,38.1,31.2,17.3,0002.5,0014.93,0007.27,0006.41
2022-09-01 20:42:00,,0827.2,5.00,0.00,29.5,27.6,00.0,38.1,31.3,16.5,0000.3,0015.01,0007.31,0006.42
2022-09-01 20:43:00,,0827.1,5.00,0.00,29.5,27.9,00.0,38.1,31.3,15.6,0000.0,0014.46,0007.29,0006.40
2022-09-01 20:44:00,,0827.1,5.02,0.00,29.6,28.1,00.0,38.2,31.4,15.3,0000.0,0014.24,0007.23,0006.36
2022-09-01 20:45:00,,0827.2,5.01,0.00,29.6,28.3,00.0,38.2,31.5,15.5,0000.0,0013.17,0007.19,0006.34
2022-09-01 20:46:00,,0827.2,4.99,0.00,29.6,27.8,00.0,38.2,31.5,15.6,0000.0,0012.70,0007.12,0006.32
2022-09-01 20:47:00,,0827.2,4.99,0.00,29.6,26.6,00.0,38.2,31.4,15.7,0000.0,0012.52,0007.07,0006.28
2022-09-01 20:48:00,,0827.1,4.99,0.00,29.5,26.5,00.0,38.1,31.3,15.8,0000.0,0012.63,0007.01,0006.25
2022-09-01 20:49:00,,0827.0,5.00,0.00,29.5,26.8,00.0,38.1,31.3,15.9,0000.0,0012.32,0006.97,0006.21
2022-09-01 20:50:00,,0827.0,5.01,0.00,29.5,27.1,00.0,38.1,31.2,16.0,0000.0,0012.12,0006.92,0006.18
2022-09-01 20:51:00,,0827.1,4.99,0.00,29.5,27.4,00.0,38.1,31.2,16.0,0000.0,0012.05,0006.90,0006.19
2022-09-01 20:52:00,,0827.2,5.01,0.00,29.5,27.7,00.0,38.1,31.3,16.0,0000.0,0011.34,0006.84,0006.16
2022-09-01 20:53:00,,0827.1,5.00,0.00,29.5,28.0,00.0,38.1,31.4,16.0,0000.0,0011.40,0006.79,0006.14
2022-09-01 20:54:00,,0827.0,5.00,0.00,29.6,28.3,00.0,38.1,31.4,16.1,0000.0,0011.37,0006.80,0006.14
2022-09-01 20:55:00,,0826.9,4.99,0.00,29.6,27.8,00.0,38.2,31.5,16.2,0000.0,0012.20,0006.82,0006.19
2022-09-01 20:56:00,,0827.1,5.00,0.00,29.5,26.7,00.0,38.1,31.3,16.2,0000.0,0012.46,0006.82,0006.21
2022-09-01 20:57:00,,0826.9,5.00,0.00,29.5,26.5,00.0,38.1,31.3,16.8,0000.0,0012.56,0006.84,0006.21
2022-09-01 20:58:00,,0826.9,5.00,0.00,29.4,26.8,00.0,38.1,31.2,16.8,0000.0,0012.70,0006.90,0006.26
2022-09-01 20:59:00,,0826.9,5.01,0.00,29.4,27.1,00.0,38.1,31.1,16.0,0000.0,0012.59,0006.96,0006.29
